Regional Weather Roundup
Issued by NWS Mt. Holly, NJ

Home | Current Version | Previous Version | Text Only | Print | Product List | Glossary On
Versions: 1 2 3 4 5 6 7 8 9 10 11 12 13 14 15 16 17 18 19 20 21 22 23 24 25 26 27 28
000
ASUS41 KPHI 211312
RWRPHI

REGIONAL WEATHER ROUNDUP
NATIONAL WEATHER SERVICE MOUNT HOLLY NJ
800 AM EST TUE NOV 21 2017

NOTE:  "FAIR" INDICATES FEW OR NO CLOUDS BELOW 12,000 FEET WITH NO
SIGNIFICANT WEATHER AND/OR OBSTRUCTIONS TO VISIBILITY.

 * = STATION DOES NOT REPORT PRECIPITATION (E.G. RAIN, SNOW, ETC.)
        OR FOG.

NJZ015>026-211400-
SOUTHERN NEW JERSEY

CITY           SKY/WX    TMP DP  RH WIND       PRES   REMARKS
POMONA         SUNNY     46  35  65 SW9       30.18R
MILLVILLE      SUNNY     47  38  71 S6        30.18R
WRIGHTSTOWN    SUNNY     40  34  79 SW6       30.12S
MOUNT HOLLY    SUNNY     39  34  82 S5        30.15S
TRENTON        SUNNY     35  31  85 S3        30.13S

$$
NJZ001>014-211400-
NORTHERN NEW JERSEY

CITY           SKY/WX    TMP DP  RH WIND       PRES   REMARKS
SUSSEX         CLEAR     28  26  92 SW5       30.08F WCI  23
ANDOVER*         N/A     29  26  89 S3        30.09S
MORRISTOWN     MOSUNNY   30  27  86 CALM      30.13R
NEWARK         MOSUNNY   40  30  67 CALM      30.14R
TETERBORO      SUNNY     37  29  72 S3        30.13R
CALDWELL       SUNNY     32  29  88 CALM      30.13S
SOMERVILLE     SUNNY     27  25  92 NW3       30.12S
ALLAIRE*       SUNNY     42  34  73 S9        30.16S
TOMS RIVER*    SUNNY     43  35  73 S7        30.17R

$$
PAZ043-044-047-054-055-060>062-066>071-211400-
EASTERN PENNSYLVANIA

CITY           SKY/WX    TMP DP  RH WIND       PRES   REMARKS
PHILADELPHIA   MOSUNNY   42  33  70 S8        30.15S
NORTH PHILA    SUNNY     43  32  65 S6        30.15F
BLUE BELL*     CLEAR     34  32  93 CALM      30.14F
DOYLESTOWN     CLEAR     37  31  78 S6        30.11F WCI  32
QUAKERTOWN*    CLEAR     36  30  80 S5        30.11S WCI  32
PERKASIE*      FAIR      37  32  81 SW3       30.12S
POTTSTOWN      CLEAR     37  31  78 CALM      30.13S
LANCASTER      CLEAR     34  29  82 SE5       30.10S WCI  30
COATESVILLE    CLEAR     37  32  81 S5        30.12S WCI  34
READING        CLEAR     38  29  70 CALM      30.10R
ALLENTOWN      CLEAR     30  23  75 CALM      30.10F
MOUNT POCONO   CLEAR     37  22  54 SW8       30.00F WCI  31
HAZLETON       CLEAR     36  23  60 CALM      30.05R
LEHIGHTON      FAIR      27  25  93 CALM      30.10S
WILKES BARRE   CLOUDY    36  26  67 W5        30.03S WCI  32

$$
DEZALL-MDZ008-012-015-019-020-211400-
DELAWARE AND EASTERN MARYLAND

CITY           SKY/WX    TMP DP  RH WIND       PRES   REMARKS
WILMINGTON     SUNNY     40  32  73 S6        30.15S
DOVER          SUNNY     43  31  61 S9        30.17R
GEORGETOWN     SUNNY     40  36  86 SW5       30.20R
EASTON         MOSUNNY   45  32  61 S8        30.21R
ABERDEEN       PTCLDY    46  34  63 SW12      30.15R
PATUXENT       MOSUNNY   46  30  53 SW13      30.18S
OCEAN CITY     SUNNY     47  38  71 SW13      30.22R
WALLOPS ISLAND SUNNY     44  36  73 SW8       30.23R
CAMBRIDGE      SUNNY     45  34  65 S8        30.19S
SALISBURY      SUNNY     41  38  89 S8        30.21R

$$
PAZ001-021-NYZ056-072-MDZ011-DCZ001-211400-
OTHER NEARBY LOCATIONS

CITY           SKY/WX    TMP DP  RH WIND       PRES   REMARKS
HARRISBURG     PTCLDY    33  26  75 CALM      30.09S
STATE COLLEGE  CLEAR     28  23  80 SW6       30.01R WCI  22
WILLIAMSPORT   CLEAR     28  24  85 W3        30.04R
BINGHAMTON     CLEAR     35  20  54 S8        29.93S WCI  29
NEW YORK CITY  SUNNY     44  30  57 SW8G18    30.15S
BALTIMORE      PTCLDY    41  29  62 SW6       30.14R
WASHINGTON DC  PTCLDY    42  31  64 S6        30.16R

$$




USA.gov is the U.S. government's official web portal to all federal, state and local government web resources and services.